[[{"header":{"parameterUnit":"m.s-1","parameterCategory":1,"la1":30.2991,"la2":30.254,"lo1":-89.0895,"lo2":-89.0444,"dy":0.0017,"dx":0.0017,"nx":28,"ny":28,"refTime":"2023-08-13T21:00:00:Z","depth":0,"parameterNumber":2,"parameterNumberName":"U-component_of_WINDS"},"data":[0,0,0,0,0,0,0,0,0,0,0,0,0,0,0,0,0,0,0,0,0,0,0,0,0,0,0,0,0,0,0,0,0,0,0,0,0,0,0,0,0,0,0,0,0,0,0,0,0,0,0,0,0,0,0,0,0,0,1.9693,1.9693,0,1.9713,1.9713,1.9713,1.9695,1.9694,1.9694,1.9693,1.9716,1.9717,1.9718,0,0,0,0,0,0,0,0,0,0,0,0,0,1.9641,1.9642,1.9693,1.9693,1.9693,1.9713,1.9713,1.9713,1.9695,1.9694,1.9694,1.9693,1.9715,1.9717,1.9718,0,0,0,0,0,0,0,0,0,0,0,0,0,1.9662,1.9642,1.9693,1.9686,1.9686,1.9713,1.9713,1.9713,1.9696,1.9694,1.9693,1.9692,1.9715,1.9717,1.9719,1.9753,0,0,1.9725,1.9725,0,0,0,0,0,0,0,0,1.9661,1.9664,1.9687,1.9687,1.9687,1.97,1.9703,1.9727,1.9696,1.9692,1.9693,1.9692,1.9712,1.9714,1.972,1.9754,1.9755,1.9725,1.9726,1.9727,1.9727,0,0,0,0,0,0,0,1.966,1.9663,1.9701,1.9687,1.9687,1.9683,1.9685,1.9707,1.9708,1.9692,1.9691,1.9694,1.9711,1.9718,1.972,1.9755,1.9725,1.9726,1.9728,1.9728,1.9819,1.982,0,0,0,0,0,0,1.9658,1.9662,1.97,1.9701,1.9671,1.9685,1.9687,1.9697,1.9708,1.9708,1.9694,1.9693,1.9715,1.9718,1.9721,1.9762,1.9727,1.9729,1.973,1.9818,1.9819,1.9821,0,0,0,0,0,0,1.9657,1.9662,1.9699,1.9681,1.9686,1.9687,1.9698,1.9698,1.9705,1.9709,1.9709,1.9701,1.9715,1.9718,1.9745,1.9763,1.9729,1.9731,1.9816,1.9818,1.982,1.9845,0,0,0,0,0,0,1.9656,1.9662,1.9674,1.9682,1.9687,1.9722,1.9699,1.9699,1.9708,1.9706,1.9716,1.9716,1.9714,1.9742,1.9747,1.9765,1.9733,1.9815,1.9817,1.9819,1.9842,1.9847,1.9851,0,0,0,0,0,1.9654,1.9681,1.9675,1.968,1.9702,1.9723,1.9726,1.9723,1.971,1.9723,1.9725,1.9716,1.976,1.9745,1.975,1.9769,1.9814,1.9816,1.9819,1.984,1.9846,1.9851,0,0,0,0,0,0,1.9676,1.9682,1.9675,1.9705,1.9714,1.972,1.9736,1.9729,1.9742,1.9739,1.9735,1.9737,1.9766,1.977,1.9753,1.9803,1.9785,1.9789,1.9799,1.9805,1.9809,1.9808,1.9734,0,0,0,0,0,1.9684,1.97,1.9704,1.973,1.9735,1.9735,1.9744,1.974,1.9749,1.9753,1.9758,1.9768,1.9784,1.9795,1.981,1.9843,1.9845,1.9858,1.9863,1.9867,1.987,1.9889,1.9895,1.983,1.983,1.983,0,0,1.9701,1.9706,1.9716,1.9734,1.9741,1.9758,1.9738,1.9757,1.977,1.9756,1.9782,1.9786,1.9796,1.9826,1.984,1.9831,1.9889,1.987,1.9873,1.9875,1.9892,1.9898,1.9904,1.9832,1.9831,1.9831,0,0,1.9741,1.9746,1.9768,1.9775,1.9785,1.9785,1.979,1.9798,1.98,1.9825,1.9815,1.9831,1.9859,1.9867,1.9875,1.9918,1.991,1.9924,1.9947,1.9965,1.997,1.9975,1.9991,1.9996,1.9927,1.9927,1.9927,0,1.9761,1.9786,1.9781,1.9801,1.9809,1.9797,1.982,1.9827,1.9841,1.9848,1.9837,1.9872,1.9879,1.9911,1.9921,1.9928,1.9934,1.9922,1.997,1.9974,1.9978,1.9994,1.9999,1.9929,1.9928,1.9928,1.9928,0,1.9811,1.9828,1.9845,1.9859,1.9869,1.989,1.9889,1.99,1.9896,1.9898,1.9924,1.9931,1.9947,1.9955,1.9951,1.9987,1.9981,1.997,1.9952,1.9986,2.0,2.0006,1.9931,1.993,1.993,1.9929,0,0,1.9865,1.9875,1.9882,1.9888,1.9898,1.9912,1.9933,1.9948,1.9958,1.9969,1.9987,2.0011,2.0001,2.001,2.0007,2.0023,2.0057,2.001,2.001,2.0019,2.0097,2.0105,2.0112,2.0052,2.0053,2.0054,2.0097,0,1.9905,1.9941,1.9937,1.9972,1.9988,1.9977,1.9996,2.0004,2.0006,2.0021,2.0023,2.004,2.0026,2.0031,2.0046,2.005,2.0073,2.0047,2.0069,2.007,2.0067,2.0119,2.0128,2.0168,2.0102,2.0103,2.0104,0,1.9957,1.9969,2.0005,2.0013,2.002,2.0036,2.005,2.0064,2.0074,2.0074,2.0085,2.0079,2.0101,2.0082,2.0112,2.0095,2.0104,2.0107,2.0108,2.011,2.0089,2.0123,2.018,2.0187,2.0112,2.0112,2.0111,0,1.9993,2.0019,2.0043,2.0049,2.0059,2.0071,2.0075,2.0084,2.0094,2.0106,2.0113,2.0128,2.0136,2.0149,2.0148,2.0134,2.0179,2.016,2.018,2.018,2.019,2.019,2.025,2.0196,2.0196,2.0196,2.0196,0,2.0039,2.0062,2.006,2.0075,2.01,2.0096,2.0121,2.0125,2.0132,2.0149,2.014,2.0156,2.0153,2.0169,2.0169,2.0194,2.0198,2.02,2.0199,2.02,2.02,2.0206,2.0204,2.0197,2.0197,2.0197,2.0196,0,2.0084,2.0083,2.011,2.0117,2.0119,2.0137,2.0144,2.0158,2.016,2.018,2.0185,2.0187,2.0205,2.0206,2.0227,2.0226,2.0258,2.0254,2.0254,2.0253,2.0274,2.0272,2.0341,2.0349,2.0289,2.029,2.0291,0,2.0113,2.013,2.0139,2.0149,2.0154,2.0171,2.018,2.0177,2.0188,2.02,2.0214,2.0231,2.0245,2.0275,2.0279,2.0295,2.0292,2.0314,2.0294,2.0295,2.0292,2.0291,2.0293,2.0319,2.0319,2.032,2.032,0,2.0166,2.0165,2.0179,2.0193,2.0205,2.0216,2.0226,2.0235,2.0233,2.0245,2.0264,2.0274,2.0295,2.0313,2.0329,2.0334,2.0327,2.0327,2.0332,2.0334,2.0333,2.0334,2.0265,2.0325,2.0325,2.0324,2.0324,2.0324,2.0204,2.0218,2.0227,2.0243,2.025,2.026,2.0274,2.0277,2.0292,2.0309,2.0306,2.0327,2.0337,2.0357,2.0364,2.038,2.0372,2.038,2.0382,2.0385,2.0387,2.033,2.0383,2.0383,2.0383,2.0383,2.0382,0,2.0256,2.0261,2.0275,2.029,2.0303,2.0294,2.0305,2.0317,2.0335,2.0344,2.0358,2.0379,2.0396,2.0401,2.0418,2.043,2.0427,2.0434,2.0434,2.0435,2.0393,2.0386,2.0436,2.0436,2.0436,2.0436,2.0436,2.0436,2.0284,2.0309,2.0309,2.0337,2.0342,2.0362,2.0369,2.0378,2.0385,2.0409,2.0423,2.0426,2.0434,2.0451,2.0467,2.0468,2.0474,2.0483,2.0483,2.0443,2.0438,2.0433,2.0427,2.0484,2.0485,2.0524,2.0524,2.0524]},{"header":{"parameterUnit":"m.s-1","parameterCategory":1,"la1":30.2991,"la2":30.254,"lo1":-89.0895,"lo2":-89.0444,"dy":0.0017,"dx":0.0017,"nx":28,"ny":28,"refTime":"2023-08-13T21:00:00:Z","depth":0,"parameterNumber":3,"parameterNumberName":"V-component_of_WINDS"},"data":[0,0,0,0,0,0,0,0,0,0,0,0,0,0,0,0,0,0,0,0,0,0,0,0,0,0,0,0,0,0,0,0,0,0,0,0,0,0,0,0,0,0,0,0,0,0,0,0,0,0,0,0,0,0,0,0,0,0,0.6454,0.6454,0,0.646,0.646,0.646,0.6468,0.6468,0.6468,0.6468,0.6473,0.6473,0.6473,0,0,0,0,0,0,0,0,0,0,0,0,0,0.6447,0.6447,0.6454,0.6454,0.6454,0.646,0.646,0.646,0.6468,0.6468,0.6468,0.6468,0.6473,0.6473,0.6473,0,0,0,0,0,0,0,0,0,0,0,0,0,0.6451,0.6447,0.6454,0.6459,0.6459,0.646,0.646,0.6461,0.6468,0.6468,0.6468,0.6468,0.6473,0.6473,0.6473,0.647,0,0,0.6474,0.6474,0,0,0,0,0,0,0,0,0.6451,0.6451,0.6458,0.6458,0.6459,0.6464,0.646,0.6464,0.6468,0.6465,0.6468,0.6469,0.647,0.647,0.6471,0.647,0.647,0.6474,0.6474,0.6474,0.6474,0,0,0,0,0,0,0,0.6451,0.6451,0.6457,0.6458,0.6459,0.646,0.6461,0.646,0.6466,0.6465,0.6465,0.6466,0.647,0.6471,0.6471,0.6471,0.6474,0.6474,0.6474,0.6474,0.6466,0.6466,0,0,0,0,0,0,0.645,0.6451,0.6456,0.6457,0.6455,0.646,0.6461,0.6462,0.6466,0.6467,0.6466,0.6466,0.6471,0.6471,0.6471,0.6467,0.6474,0.6474,0.6474,0.6466,0.6466,0.6466,0,0,0,0,0,0,0.645,0.645,0.6456,0.6454,0.6455,0.646,0.6461,0.6462,0.6463,0.6467,0.6468,0.6466,0.6471,0.6471,0.647,0.6467,0.6474,0.6474,0.6466,0.6466,0.6466,0.6458,0,0,0,0,0,0,0.6449,0.645,0.6449,0.6454,0.6455,0.6455,0.6461,0.6462,0.6463,0.6464,0.6467,0.6468,0.6471,0.647,0.647,0.6467,0.6474,0.6467,0.6466,0.6466,0.6459,0.6458,0.6457,0,0,0,0,0,0.6449,0.6447,0.6449,0.645,0.6454,0.6455,0.6456,0.646,0.6463,0.6462,0.6464,0.6468,0.6467,0.647,0.647,0.6467,0.6467,0.6466,0.6466,0.6459,0.6458,0.6457,0,0,0,0,0,0,0.6442,0.6448,0.645,0.645,0.6452,0.6457,0.6455,0.6459,0.646,0.646,0.6465,0.6466,0.6464,0.6465,0.6468,0.6463,0.6468,0.6467,0.6462,0.6461,0.646,0.646,0.6474,0,0,0,0,0,0.644,0.6441,0.6446,0.6445,0.6446,0.645,0.6451,0.6454,0.6456,0.6457,0.646,0.6461,0.6461,0.6461,0.6462,0.6459,0.6459,0.6457,0.6456,0.6455,0.6454,0.6452,0.645,0.6464,0.6464,0.6464,0,0,0.6437,0.644,0.6441,0.6444,0.6446,0.6446,0.6451,0.6451,0.6451,0.6457,0.6456,0.6458,0.646,0.6457,0.6456,0.6459,0.6451,0.6454,0.6454,0.6454,0.6451,0.645,0.6449,0.6464,0.6464,0.6464,0,0,0.6431,0.6434,0.6433,0.6435,0.6438,0.644,0.644,0.6444,0.6445,0.6444,0.6448,0.6448,0.6448,0.6449,0.645,0.6443,0.6445,0.6442,0.6437,0.6434,0.6433,0.6432,0.6429,0.6428,0.6442,0.6442,0.6442,0,0.6427,0.6428,0.6432,0.6432,0.6432,0.6438,0.6436,0.6437,0.644,0.644,0.6443,0.6443,0.6444,0.6442,0.644,0.644,0.6439,0.6442,0.6433,0.6432,0.6432,0.6428,0.6427,0.6442,0.6442,0.6442,0.6442,0,0.6421,0.6422,0.642,0.6423,0.6423,0.6422,0.6426,0.6426,0.6429,0.6431,0.6429,0.6431,0.6431,0.6431,0.6434,0.6428,0.6429,0.6433,0.6437,0.643,0.6427,0.6426,0.6441,0.6441,0.6441,0.6441,0,0,0.6412,0.6416,0.6416,0.6416,0.6419,0.6419,0.6418,0.6418,0.6418,0.6419,0.6417,0.6417,0.642,0.642,0.6423,0.642,0.6413,0.6424,0.6424,0.6421,0.6406,0.6404,0.6402,0.6415,0.6415,0.6415,0.6406,0,0.6406,0.6405,0.6408,0.6405,0.6405,0.6409,0.6408,0.6409,0.6411,0.641,0.6412,0.6411,0.6415,0.6415,0.6413,0.6415,0.641,0.6415,0.6413,0.6413,0.6412,0.6401,0.6398,0.639,0.6405,0.6405,0.6404,0,0.6399,0.64,0.6397,0.6399,0.6399,0.6398,0.6398,0.6398,0.6399,0.64,0.64,0.6403,0.64,0.6405,0.6401,0.6404,0.6403,0.6404,0.6404,0.6403,0.6408,0.6399,0.6387,0.6385,0.6403,0.6403,0.6403,0,0.6392,0.6392,0.639,0.6391,0.6393,0.6392,0.6393,0.6394,0.6394,0.6393,0.6393,0.6393,0.6392,0.6391,0.6393,0.6397,0.6389,0.6394,0.6389,0.6389,0.6387,0.6387,0.6374,0.6388,0.6388,0.6388,0.6388,0,0.6385,0.6383,0.6387,0.6386,0.6383,0.6386,0.6383,0.6385,0.6385,0.6384,0.6387,0.6386,0.6389,0.6387,0.6389,0.6385,0.6385,0.6385,0.6385,0.6384,0.6384,0.6384,0.6384,0.6387,0.6387,0.6387,0.6388,0,0.6376,0.6379,0.6377,0.6379,0.6379,0.6377,0.6379,0.6377,0.6379,0.6376,0.6376,0.6378,0.6376,0.6378,0.6377,0.6378,0.6372,0.6374,0.6372,0.6372,0.6367,0.6367,0.6353,0.635,0.6366,0.6366,0.6365,0,0.6371,0.637,0.6372,0.6371,0.6371,0.637,0.637,0.6373,0.6372,0.6372,0.637,0.6368,0.6367,0.6364,0.6365,0.6363,0.6364,0.6359,0.6364,0.6362,0.6363,0.6363,0.6362,0.6358,0.6358,0.6357,0.6357,0,0.6362,0.6363,0.6363,0.6362,0.6362,0.6361,0.6361,0.636,0.6363,0.6362,0.636,0.6359,0.6357,0.6354,0.6353,0.6353,0.6355,0.6356,0.6354,0.6353,0.6352,0.6352,0.6369,0.6356,0.6356,0.6356,0.6356,0.6356,0.6355,0.6354,0.6354,0.6353,0.6353,0.6352,0.6351,0.6352,0.635,0.6349,0.635,0.6348,0.6347,0.6345,0.6345,0.6342,0.6344,0.6342,0.6342,0.6341,0.634,0.6353,0.6342,0.6342,0.6342,0.6342,0.6342,0,0.6346,0.6346,0.6345,0.6344,0.6343,0.6346,0.6345,0.6344,0.6341,0.6341,0.6339,0.6336,0.6334,0.6334,0.6332,0.6329,0.633,0.6328,0.6328,0.6328,0.6339,0.634,0.6328,0.6328,0.6328,0.6328,0.6328,0.6328,0.6341,0.6338,0.6339,0.6335,0.6335,0.6333,0.6332,0.6331,0.6331,0.6327,0.6325,0.6325,0.6325,0.6322,0.6319,0.6319,0.6318,0.6316,0.6316,0.6326,0.6327,0.6329,0.633,0.6316,0.6316,0.6305,0.6305,0.6305]}]]